Starlink 37210

operational
NORAD ID: 68558 Int'l Des: 2026-070 Owner: SPXS Country: US Constellation: starlink
LEOCIRCULAR

Über Starlink 37210

Beschreibung wird geladen...

Live-Position

3D-Globus wird geladen...

Nächste Überflüge

Höhenverlauf

Altitude vs Time

uPlot chart will show altitude changes over time

Zweizeiliger Elementsatz

1 68558C 26070R 26093.89909722 -.00016798 00000+0 -20611-4 0 934
2 68558 53.1621 259.6026 0007731 283.8156 284.8160 16.07171008 14
Epoch: 3. Apr. 2026 • Age: 30 hours

Aktueller Status

Höhe 258.8 km
Geschwindigkeit 7.75 km/s
Subsatellitenpunkt 22.11°N, 133.04°E
Startdatum 2. Apr. 2026
Alter 1 days
Typ internet

Technische Details

Klassifizierung Payload
Masse 575.00 kg
Trockenmasse 530.00 kg
Gesamtmasse 575.00 kg
Länge 0.30 m
Durchmesser 4.10 m
Spannweite 29.00 m
Form Box + pan
Hersteller SPXS
Bus-Typ Starlink V2MO
Phasenstatus In Orbit
Besitzer/Staat SPXS/US

Große Konstellationen

Loading constellations...